Location: ??
(31.9467°N, 34.8903°E)
Time: 13:57:01
(UTC+00:00)

Daily predictions for brighter satellites

Satellite Brightness Start Highest point End
(mag) Time Altitude Azimuth Time Altitude Azimuth Time Altitude Azimuth
Cosmos 1302 Rocket 4.4 15:13:13 10° SSW 15:18:26 71° WNW 15:23:43 10° NNE
OAO 3 Rocket 3.3 15:14:37 10° WNW 15:19:28 83° SSW 15:24:14 10° ESE
Cosmos 2227 Rocket 3.1 15:16:36 10° N 15:21:18 26° ENE 15:25:58 10° ESE
Cosmos 1939 Rocket 3.9 15:18:27 10° SE 15:21:42 25° ENE 15:24:55 10° NNE
Envisat 4.1 15:19:11 10° S 15:24:06 51° W 15:29:02 10° NNW
Cosmos 1689 Rocket 2.6 15:22:36 10° NNE 15:25:18 35° E 15:27:58 10° SSE
OAO 2 Rocket 3.5 15:22:29 10° W 15:27:30 66° N 15:32:13 11° ENE
Cosmos 1697 Rocket 2.8 15:22:28 10° S 15:27:52 53° ESE 15:33:20 10° NNE
Cosmos 1892 3.8 15:25:58 10° NNE 15:29:07 23° ENE 15:32:15 10° SE
Cosmos 1300 4.2 15:28:07 10° SSW 15:31:42 40° W 15:35:18 10° N
Meteor 2-8 Rocket 4.4 15:25:55 10° S 15:31:59 77° E 15:38:08 10° N
Cosmos 1400 Rocket 3.2 15:28:32 10° SSW 15:32:38 73° W 15:36:44 10° N
S3M 4.3 15:27:01 10° SSE 15:32:38 40° E 15:38:19 10° NNE
COSMO-SKYMED 1 2.5 15:30:17 10° NNE 15:34:37 65° ESE 15:38:54 10° S
Delta 2 Rocket 4.0 15:32:36 10° WNW 15:37:40 83° SSW 15:43:13 10° ESE
Helios 1A Rocket 3.9 15:35:15 10° SE 15:38:40 26° ENE 15:42:05 10° NNE
SAR-Lupe-4 3.8 15:35:25 10° N 15:38:59 73° WNW 15:42:32 10° SSW
Delta 142 4.4 15:35:12 10° W 15:39:22 48° S 15:44:25 10° ESE
Atlas Centaur 2 3.2 15:31:54 10° WSW 15:40:00 77° S 15:47:29 15° E
YAOGAN 1 3.9 15:37:05 10° ESE 15:40:10 19° ENE 15:43:14 10° NNE
NOAA 11 4.1 15:34:46 10° SSE 15:40:11 77° ENE 15:45:37 10° N
Meteor 2-1 Rocket 4.4 15:35:47 10° SSE 15:40:59 45° E 15:46:13 10° NNE
Cosmos 1417 Rocket 4.5 15:36:39 10° S 15:42:48 66° E 15:49:02 10° NNE
CZ-4B R/B 3.5 15:41:16 10° NNW 15:44:00 27° WNW 15:46:39 10° SW
Cosmos 1812 Rocket 4.2 15:42:05 10° SSE 15:45:59 32° E 15:49:53 10° NNE
ERS-2 4.4 15:43:18 10° NNW 15:46:24 26° WNW 15:49:29 10° SW
Okean O Rocket 3.1 15:42:28 10° S 15:46:35 41° W 15:50:44 10° NNW
GPS 2-04 Rocket1 2.7 15:43:21 10° WSW 15:47:22 80° NNW 15:50:13 19° ENE
CZ-2D R/B 3.8 15:44:07 10° SE 15:47:36 35° ENE 15:51:06 10° N
CZ-4 R/B 2.2 15:46:26 10° SE 15:49:43 27° ENE 15:53:00 10° NNE
Aureole 3 4.5 15:47:32 10° SSW 15:50:36 35° W 15:53:24 10° NNW
Cosmos 1980 Rocket 2.5 15:46:14 10° S 15:51:30 42° ESE 15:56:44 10° NE
Meteor 2-15 Rocket 4.5 15:47:46 10° S 15:53:45 57° E 15:59:44 10° NNE
Cosmos 1992 Rocket 4.0 15:49:51 10° SSW 15:55:03 86° WNW 16:00:17 10° NNE
Cosmos 1340 2.6 15:52:24 10° N 15:56:11 89° W 15:59:57 10° S
CZ-2C R/B 3.8 15:52:54 10° SE 15:58:10 37° ENE 16:03:20 10° N
Timation 2 Rocket 4.4 15:52:54 10° NNW 15:59:36 74° WSW 16:06:26 10° SSE
Cosmos 1553 Rocket 4.2 15:54:34 10° S 16:00:56 76° W 16:07:14 10° N
Cosmos 2297 Rocket 2.1 15:55:20 10° NNW 16:01:00 75° ENE 16:06:38 10° SSE
In-Cosmos 22 Rocket 4.1 15:57:18 10° N 16:02:45 87° E 16:08:18 10° S
Cosmos 1346 Rocket 3.0 15:59:28 10° N 16:03:19 45° E 16:07:08 10° SSE
Cosmos 2058 3.1 15:59:29 10° N 16:03:25 45° E 16:07:21 10° SSE
ASTRO E2 2.6 16:00:13 10° W 16:04:11 84° S 16:05:54 32° E
Meteor 2-15 4.5 15:59:04 10° S 16:05:13 87° W 16:11:23 10° N
Cosmos 1315 Rocket 2.7 16:02:25 10° S 16:06:21 88° E 16:10:20 10° N
Meteor 2-10 Rocket 3.7 16:05:10 10° SSW 16:10:32 75° W 16:15:43 10° N
Cosmos 2360 4.4 16:08:44 10° SSW 16:14:27 77° WNW 16:20:11 10° NNE
CRYOSAT 2 4.3 16:10:23 10° NNE 16:15:11 57° E 16:19:56 10° S
Geosat 3.9 16:12:50 10° NNE 16:17:52 78° ESE 16:22:52 10° SSW
Cosmos 1455 2.6 16:15:18 10° SSW 16:19:01 62° W 16:22:47 10° N
H-2A R/B 2.6 16:15:54 20° SE 16:19:06 39° ENE 16:24:07 10° N
Okean-O 2.5 16:19:12 10° SSE 16:23:37 85° ENE 16:28:04 10° N
Cosmos 2278 3.6 16:19:07 10° SSW 16:24:48 89° WNW 16:30:31 10° NNE
Milstar 3 2.9 16:26:23 10° W 16:33:17 65° S 16:36:12 35° ESE
MOS 1 Rocket 3.3 16:28:24 10° NNE 16:33:17 90° ENE 16:38:27 10° SSW
ARGOS 4.1 16:35:50 31° NNE 16:35:50 31° NNE 16:39:05 10° N
Cosmos 2219 4.1 16:28:51 10° NNW 16:34:23 50° WSW 16:39:53 10° S
Cosmos 1745 Rocket 4.1 16:29:20 10° N 16:35:40 80° W 16:42:00 10° S
ATLAS 2AS CENTAUR R/B 4.3 16:35:01 10° N 16:38:50 18° NNE 16:38:50 18° NNE
Cosmos 2082 3.6 16:36:06 10° NNW 16:41:50 72° ENE 16:43:52 41° SE
Cosmos 967 Rocket 4.5 16:42:09 10° SSW 16:48:35 85° WNW 16:51:58 30° NNE
Cosmos 1408 4.0 16:45:18 10° NNW 16:48:44 39° W 16:52:10 10° SSW
Cosmos 968 Rocket 4.3 16:43:51 10° NNW 16:48:50 49° WSW 16:53:44 10° S
CSL-04 Rocket 3.6 16:52:35 32° SSE 16:55:17 86° ENE 17:00:50 10° NNW
Cosmos 1076 Rocket 4.5 16:56:40 10° NNW 17:00:44 45° W 17:04:48 10° SSW
SL-16 R/B 4.1 16:56:19 10° S 16:57:27 16° S 16:57:27 16° S
Cosmos 1709 Rocket 4.0 16:58:48 10° N 17:05:13 84° W 17:11:34 10° S
Cosmos 2227 Rocket 3.7 17:00:16 10° NW 17:05:18 34° WSW 17:10:20 10° SSW
Cosmos 2263 Rocket 4.4 17:02:59 10° N 17:03:24 12° N 17:03:24 12° N
OAO 2 Rocket 4.2 17:07:35 10° WNW 17:11:10 45° NW 17:11:10 45° NW
SEDSat Delta rocket 4.5 17:07:05 10° SW 17:12:35 46° S 17:12:35 46° S
CZ-4 R/B 4.3 17:22:25 10° SW 17:24:43 15° W 17:27:00 10° WNW
Atlas Centaur 2 3.0 17:21:30 10° W 17:30:02 77° S 17:30:05 77° S
Cosmos 1980 Rocket 4.4 17:31:20 10° WSW 17:35:36 22° WNW 17:39:22 12° NNW
H-2A R/B 4.3 17:56:31 17° SW 17:58:33 21° W 18:02:37 10° NW
